QPF
0.01 0.00 0.01 0.01 0.01 0.01 0.00 0.00 0.00 0.00 0.00 0.00 0.00 0.00 0.00 0.00 0.00 0.00 0.00 0.00 0.00 0.00 0.00 0.00 0.00 0.00 0.00 0.00 0.00 0.00 0.00 0.00 0.00 0.00 0.00 0.00 0.00 0.00 0.00 0.00 0.00 0.00 0.00 0.00 0.00
0.00 0.00 0.01 0.01 0.01 0.01 0.01 0.00 0.00 0.00 0.00 0.00 0.00 0.00 0.00 0.00 0.00 0.00 0.00 0.00 0.00 0.00 0.00 0.00 0.00 0.00 0.00 0.00 0.00 0.00 0.00 0.00 0.00 0.00 0.00 0.00 0.00 0.00 0.00 0.00 0.00 0.00 0.00 0.00 0.00
0.00 0.00 0.00 0.00 0.00 0.00 0.00 0.00 0.00 0.00 0.00 0.00 0.00 0.00 0.00 0.00 0.00 0.00 0.00 0.00 0.00 0.00 0.00 0.00 0.00 0.00 0.00 0.00 0.00 0.00 0.00 0.00 0.00 0.00 0.00 0.00 0.00 0.00 0.00 0.00 0.00 0.00 0.00 0.00 0.00
0.01 0.01 0.00 0.00 0.00 0.00 0.00 0.00 0.00 0.00 0.00 0.00 0.00 0.00 0.00 0.00 0.00 0.00 0.00 0.00 0.00 0.00 0.00 0.00 0.00 0.00 0.00 0.00 0.00 0.00 0.00 0.00 0.00 0.00 0.00 0.00 0.00 0.00 0.00 0.00 0.00 0.00 0.00 0.00 0.00
0.00 0.00 0.00 0.00 0.00 0.00 0.00 0.00 0.00 0.00 0.00 0.00 0.00 0.00 0.00 0.00 0.00 0.00 0.00 0.00 0.00 0.00 0.00 0.00 0.00 0.00 0.00 0.00 0.00 0.00 0.00 0.00 0.00 0.00 0.00 0.00 0.00 0.00 0.00 0.00 0.00 0.00 0.00 0.00 0.00
0.00 0.00 0.00 0.00 0.00 0.00 0.00 0.00 0.00 0.00 0.00 0.00 0.00 0.00 0.00 0.00 0.00 0.00 0.00 0.00 0.00 0.00 0.00 0.00 0.00 0.00 0.00 0.00 0.00 0.00 0.00 0.01 0.00 0.00 0.00 0.00 0.00 0.00 0.00 0.00 0.00 0.00 0.00 0.00 0.00
0.00 0.00 0.00 0.00 0.00 0.00 0.00 0.00 0.00 0.00 0.00 0.00 0.00 0.00 0.00 0.00 0.00 0.00 0.00 0.00 0.00 0.00 0.00 0.00 0.00 0.00 0.00 0.00 0.00 0.00 0.00 0.01 0.01 0.00 0.00 0.00 0.00 0.00 0.00 0.00 0.00 0.00 0.00 0.00 0.00
0.00 0.00 0.00 0.00 0.00 0.00 0.00 0.00 0.00 0.00 0.00 0.00 0.00 0.00 0.00 0.00 0.00 0.00 0.00 0.00 0.00 0.00 0.00 0.00 0.00 0.00 0.00 0.00 0.00 0.00 0.00 0.00 0.01 0.00 0.00 0.00 0.00 0.00 0.00 0.00 0.00 0.00 0.00 0.00 0.00
0.00 0.00 0.00 0.00 0.00 0.00 0.00 0.00 0.00 0.00 0.00 0.00 0.00 0.00 0.00 0.00 0.00 0.00 0.00 0.00 0.00 0.00 0.00 0.00 0.00 0.00 0.00 0.00 0.00 0.00 0.00 0.00 0.00 0.00 0.00 0.00 0.00 0.00 0.00 0.00 0.00 0.00 0.00 0.00 0.00
0.00 0.00 0.00 0.00 0.00 0.00 0.00 0.00 0.00 0.00 0.00 0.00 0.00 0.00 0.00 0.00 0.00 0.00 0.00 0.00 0.00 0.00 0.00 0.00 0.00 0.00 0.00 0.00 0.00 0.00 0.00 0.00 0.00 0.00 0.00 0.00 0.00 0.00 0.00 0.00 0.00 0.00 0.00 0.00 0.00
0.00 0.00 0.00 0.00 0.00 0.01 0.00 0.00 0.00 0.00 0.00 0.00 0.00 0.00 0.00 0.00 0.00 0.00 0.00 0.00 0.00 0.00 0.00 0.00 0.00 0.00 0.00 0.00 0.00 0.00 0.00 0.00 0.00 0.00 0.00 0.00 0.00 0.00 0.00 0.00 0.00 0.00 0.00 0.00 0.00
0.00 0.00 0.00 0.00 0.00 0.00 0.00 0.00 0.00 0.00 0.00 0.00 0.00 0.00 0.00 0.00 0.00 0.00 0.00 0.00 0.00 0.00 0.00 0.00 0.00 0.00 0.00 0.00 0.00 0.00 0.00 0.00 0.00 0.00 0.00 0.00 0.00 0.00 0.00 0.00 0.00 0.00 0.00 0.00 0.00
0.00 0.00 0.00 0.00 0.00 0.00 0.00 0.00 0.00 0.00 0.00 0.00 0.00 0.00 0.00 0.00 0.00 0.00 0.00 0.00 0.00 0.00 0.00 0.00 0.00 0.00 0.00 0.00 0.00 0.00 0.00 0.00 0.00 0.00 0.00 0.00 0.00 0.00 0.00 0.00 0.00 0.00 0.00 0.00 0.00
0.00 0.00 0.00 0.00 0.00 0.00 0.00 0.00 0.00 0.00 0.00 0.00 0.00 0.00 0.00 0.00 0.00 0.00 0.00 0.00 0.00 0.00 0.00 0.00 0.00 0.00 0.00 0.00 0.00 0.00 0.00 0.00 0.00 0.00 0.00 0.01 0.00 0.00 0.00 0.00 0.00 0.00 0.00 0.00 0.00
0.00 0.00 0.01 0.00 0.00 0.00 0.00 0.00 0.00 0.00 0.00 0.00 0.00 0.00 0.00 0.00 0.00 0.00 0.00 0.00 0.00 0.00 0.00 0.00 0.00 0.00 0.00 0.00 0.00 0.00 0.00 0.00 0.00 0.00 0.00 0.00 0.00 0.00 0.00 0.00 0.00 0.00 0.00 0.00 0.00
0.00 0.01 0.01 0.00 0.00 0.00 0.00 0.00 0.00 0.00 0.00 0.00 0.00 0.00 0.00 0.00 0.00 0.00 0.00 0.00 0.00 0.00 0.00 0.00 0.00 0.00 0.00 0.00 0.00 0.00 0.00 0.00 0.00 0.00 0.00 0.00 0.00 0.00 0.00 0.00 0.00 0.00 0.00 0.00 0.00
0.00 0.00 0.00 0.00 0.00 0.00 0.00 0.00 0.00 0.00 0.00 0.00 0.00 0.00 0.00 0.00 0.00 0.00 0.00 0.00 0.00 0.00 0.00 0.00 0.00 0.00 0.00 0.00 0.00 0.00 0.00 0.00 0.00 0.00 0.00 0.00 0.00 0.00 0.00 0.00 0.00 0.00 0.00 0.00 0.00
0.00 0.00 0.00 0.00 0.00 0.00 0.00 0.00 0.00 0.00 0.00 0.00 0.00 0.00 0.00 0.00 0.00 0.00 0.00 0.00 0.00 0.00 0.00 0.00 0.00 0.00 0.00 0.00 0.00 0.00 0.00 0.00 0.00 0.00 0.00 0.00 0.00 0.00 0.00 0.00 0.00 0.00 0.00 0.00 0.00
0.00 0.00 0.00 0.00 0.00 0.00 0.00 0.00 0.00 0.00 0.00 0.00 0.00 0.00 0.00 0.00 0.00 0.00 0.00 0.00 0.00 0.00 0.00 0.00 0.00 0.00 0.00 0.00 0.00 0.00 0.00 0.00 0.00 0.00 0.00 0.00 0.00 0.00 0.00 0.00 0.00 0.00 0.00 0.00 0.00
0.00 0.00 0.00 0.00 0.00 0.00 0.00 0.00 0.00 0.00 0.00 0.00 0.00 0.00 0.00 0.00 0.00 0.00 0.00 0.00 0.00 0.00 0.00 0.00 0.00 0.00 0.00 0.00 0.00 0.00 0.00 0.00 0.00 0.00 0.00 0.00 0.00 0.00 0.00 0.00 0.00 0.00 0.00 0.00 0.00
0.00 0.00 0.00 0.00 0.00 0.00 0.00 0.00 0.00 0.00 0.00 0.00 0.00 0.00 0.00 0.00 0.00 0.00 0.00 0.00 0.00 0.00 0.00 0.00 0.00 0.00 0.00 0.00 0.00 0.00 0.00 0.00 0.00 0.00 0.00 0.00 0.00 0.00 0.00 0.00 0.00 0.00 0.00 0.00 0.00
0.00 0.00 0.00 0.00 0.00 0.00 0.00 0.00 0.00 0.00 0.00 0.00 0.00 0.00 0.00 0.00 0.00 0.00 0.00 0.00 0.00 0.00 0.00 0.00 0.00 0.00 0.00 0.00 0.00 0.00 0.00 0.00 0.00 0.00 0.00 0.00 0.00 0.00 0.00 0.00 0.00 0.00 0.00 0.00 0.00
0.00 0.00 0.00 0.00 0.00 0.00 0.00 0.00 0.00 0.00 0.00 0.00 0.00 0.00 0.00 0.00 0.00 0.00 0.00 0.00 0.00 0.00 0.00 0.00 0.00 0.00 0.00 0.00 0.00 0.00 0.00 0.00 0.00 0.00 0.00 0.00 0.00 0.00 0.00 0.00 0.00 0.00 0.00 0.00 0.00
0.00 0.00 0.00 0.00 0.00 0.00 0.00 0.00 0.00 0.00 0.00 0.00 0.00 0.00 0.00 0.00 0.00 0.00 0.00 0.00 0.00 0.00 0.00 0.00 0.00 0.00 0.00 0.00 0.00 0.00 0.00 0.00 0.00 0.00 0.00 0.00 0.00 0.00 0.00 0.00 0.00 0.00 0.00 0.00 0.00
0.00 0.00 0.00 0.00 0.00 0.00 0.00 0.00 0.00 0.00 0.00 0.00 0.00 0.00 0.00 0.00 0.00 0.00 0.00 0.00 0.00 0.00 0.00 0.00 0.00 0.00 0.00 0.00 0.00 0.00 0.00 0.00 0.00 0.00 0.00 0.00 0.00 0.00 0.00 0.00 0.00 0.00 0.00 0.00 0.00
0.00 0.00 0.00 0.00 0.00 0.00 0.00 0.00 0.00 0.00 0.00 0.00 0.00 0.00 0.00 0.00 0.00 0.00 0.00 0.00 0.00 0.00 0.00 0.00 0.00 0.00 0.00 0.00 0.00 0.00 0.00 0.00 0.00 0.00 0.00 0.00 0.00 0.00 0.00 0.00 0.00 0.00 0.00 0.00 0.00
0.00 0.00 0.00 0.00 0.00 0.00 0.00 0.00 0.00 0.00 0.00 0.00 0.00 0.00 0.00 0.00 0.00 0.00 0.00 0.00 0.00 0.00 0.00 0.00 0.00 0.00 0.00 0.00 0.00 0.00 0.00 0.00 0.00 0.00 0.00 0.00 0.00 0.00 0.00 0.00 0.00 0.00 0.00 0.00 0.00
MSLP
1017.01 1016.74 1016.50 1016.24 1015.96 1015.66 1015.42 1015.19 1014.92 1014.75 1014.52 1014.25 1014.07 1013.93 1013.86 1013.64 1013.34 1013.18 1011.64 1009.59 1009.61 1010.07 1010.54 1010.88 1010.91 1010.80 1010.75 1010.97 1011.45 1011.70 1011.58 1011.72 1011.90 1011.91 1011.81 1011.78 1011.46 1011.47 1011.28 1011.34 1011.81 1012.37 1012.63 1013.00 1014.18
1017.02 1016.74 1016.48 1016.22 1015.92 1015.63 1015.34 1015.07 1014.81 1014.59 1014.42 1014.17 1013.94 1013.87 1013.68 1013.52 1012.93 1011.61 1009.34 1009.28 1009.49 1010.00 1010.29 1010.31 1010.46 1010.74 1010.73 1011.03 1011.30 1011.29 1011.27 1011.17 1011.26 1011.40 1011.57 1011.65 1011.43 1011.33 1011.33 1011.54 1011.91 1012.62 1013.10 1013.63 1014.41
1016.99 1016.73 1016.44 1016.13 1015.88 1015.56 1015.25 1014.94 1014.62 1014.38 1014.25 1014.13 1013.94 1013.75 1013.56 1013.40 1012.15 1009.48 1008.88 1009.21 1009.49 1009.83 1009.87 1010.09 1010.26 1010.60 1010.62 1010.98 1011.10 1011.20 1011.01 1011.04 1011.05 1011.12 1011.31 1011.43 1011.41 1011.44 1011.27 1011.39 1011.49 1012.09 1012.99 1013.74 1014.35
1017.05 1016.74 1016.42 1016.04 1015.63 1015.37 1015.05 1014.67 1014.43 1014.19 1014.05 1013.88 1013.76 1013.60 1013.48 1013.13 1011.14 1009.10 1008.94 1009.18 1009.54 1009.76 1009.95 1009.97 1010.24 1010.26 1010.23 1010.38 1010.85 1010.85 1010.84 1010.85 1011.07 1011.29 1011.40 1011.46 1011.50 1011.41 1011.55 1011.63 1011.47 1012.02 1012.95 1013.61 1014.11
1016.94 1016.63 1016.27 1015.88 1015.47 1015.11 1014.78 1014.45 1014.16 1013.96 1013.84 1013.65 1013.60 1013.51 1013.41 1012.05 1009.62 1008.94 1009.04 1009.35 1009.73 1009.88 1009.60 1009.51 1009.67 1009.79 1009.74 1010.08 1010.63 1010.77 1010.74 1010.98 1011.14 1011.35 1011.58 1011.71 1011.61 1011.47 1011.66 1011.73 1011.91 1012.30 1013.12 1013.50 1013.89
1016.70 1016.33 1016.03 1015.69 1015.26 1014.82 1014.43 1014.13 1013.90 1013.64 1013.48 1013.39 1013.40 1013.42 1012.74 1010.65 1008.76 1008.83 1008.97 1009.54 1009.48 1009.64 1009.47 1009.46 1009.19 1009.37 1009.51 1009.92 1010.28 1010.76 1010.91 1011.11 1011.21 1011.40 1011.67 1011.68 1011.65 1011.57 1011.65 1011.57 1011.98 1012.39 1012.82 1013.32 1013.65
1016.57 1016.14 1015.78 1015.44 1015.08 1014.74 1014.34 1013.91 1013.54 1013.25 1013.12 1013.12 1013.17 1013.06 1011.82 1009.62 1008.92 1009.13 1009.28 1009.32 1009.38 1009.37 1009.28 1009.48 1009.28 1009.26 1009.45 1009.82 1010.48 1010.76 1010.98 1011.13 1011.26 1011.39 1011.46 1011.62 1011.75 1011.44 1011.72 1011.81 1011.98 1012.18 1012.70 1013.11 1013.48
1016.42 1015.99 1015.63 1015.28 1014.91 1014.54 1014.13 1013.70 1013.21 1012.89 1012.96 1013.03 1013.03 1012.62 1010.40 1008.92 1008.98 1009.18 1009.38 1009.62 1009.71 1009.63 1009.56 1009.52 1009.42 1009.35 1009.53 1009.97 1010.32 1010.57 1010.93 1010.90 1010.99 1011.22 1011.38 1011.53 1010.98 1011.17 1011.77 1011.75 1011.94 1012.07 1012.39 1012.79 1013.08
1016.28 1015.80 1015.38 1015.03 1014.74 1014.40 1013.92 1013.42 1012.93 1012.86 1012.93 1012.99 1012.83 1011.97 1009.60 1009.06 1008.82 1008.67 1008.88 1009.07 1009.59 1009.69 1009.59 1009.44 1009.33 1009.50 1009.76 1009.58 1010.05 1010.61 1010.47 1010.68 1010.70 1011.18 1011.31 1011.43 1010.77 1010.99 1011.65 1011.87 1012.05 1011.90 1012.09 1012.28 1012.66
1016.08 1015.65 1015.27 1014.83 1014.46 1014.15 1013.74 1013.41 1013.01 1012.93 1013.07 1012.93 1012.39 1011.73 1009.28 1008.23 1008.06 1008.47 1008.90 1008.97 1009.11 1009.39 1009.43 1009.33 1009.40 1009.34 1009.58 1009.35 1009.27 1010.10 1010.15 1010.29 1010.44 1010.92 1011.12 1011.07 1010.74 1011.19 1011.46 1011.66 1011.66 1011.78 1011.75 1011.91 1011.99
1015.81 1015.38 1015.04 1014.71 1014.34 1013.99 1013.73 1013.27 1013.23 1012.78 1012.25 1010.56 1009.97 1009.10 1008.22 1007.92 1007.85 1008.21 1008.46 1008.62 1008.80 1009.04 1008.99 1009.40 1009.11 1008.58 1008.73 1009.12 1009.57 1009.87 1009.95 1009.75 1009.85 1010.43 1010.74 1010.61 1010.39 1010.54 1011.10 1011.41 1011.17 1011.18 1011.22 1011.25 1011.22
1015.47 1015.04 1014.63 1014.31 1013.96 1013.53 1013.43 1012.14 1010.92 1010.80 1010.26 1009.36 1009.25 1008.77 1008.23 1007.83 1007.61 1007.98 1008.26 1008.30 1008.53 1008.56 1009.06 1009.39 1008.45 1008.62 1009.09 1009.39 1009.46 1009.53 1009.45 1009.24 1009.54 1010.16 1010.43 1010.27 1009.74 1009.61 1010.04 1010.21 1010.37 1010.23 1010.34 1010.41 1010.67
1015.25 1014.74 1014.29 1013.93 1013.61 1013.59 1012.47 1011.11 1010.61 1010.38 1009.88 1008.72 1008.40 1007.90 1007.58 1007.69 1007.40 1007.41 1007.79 1007.96 1008.25 1008.63 1008.73 1008.52 1008.46 1008.45 1008.74 1008.92 1009.03 1008.87 1008.84 1008.88 1009.22 1009.92 1010.20 1010.17 1009.16 1008.53 1008.40 1009.11 1009.64 1009.72 1009.60 1009.75 1009.82
1014.89 1014.37 1014.00 1013.57 1013.59 1012.63 1011.49 1010.77 1010.66 1010.43 1009.43 1008.17 1007.71 1006.99 1007.17 1007.03 1007.16 1006.90 1007.24 1007.38 1008.09 1008.22 1008.77 1008.53 1008.14 1008.32 1008.44 1008.21 1008.57 1008.01 1008.34 1008.65 1009.05 1009.36 1009.47 1009.94 1008.87 1008.13 1007.67 1007.90 1008.37 1008.65 1008.58 1008.65 1009.17
1014.49 1014.01 1013.76 1013.63 1013.21 1012.13 1011.11 1010.78 1010.57 1010.29 1008.50 1007.26 1006.95 1006.82 1006.79 1006.54 1006.47 1006.98 1007.10 1007.28 1007.53 1008.02 1008.51 1007.73 1007.74 1007.71 1007.73 1007.49 1007.94 1007.80 1008.16 1008.41 1008.68 1009.06 1009.35 1009.25 1009.14 1007.18 1007.36 1006.68 1006.48 1006.88 1007.21 1007.63 1008.04
1013.87 1013.45 1013.22 1013.21 1013.16 1011.29 1010.92 1010.62 1010.29 1009.46 1007.57 1006.52 1006.43 1006.44 1006.49 1006.34 1006.25 1006.68 1006.97 1007.10 1007.67 1007.95 1008.14 1007.55 1007.67 1007.43 1006.71 1007.07 1007.39 1008.08 1008.25 1008.59 1008.98 1009.07 1008.64 1008.11 1008.03 1005.80 1005.70 1004.98 1004.86 1005.31 1005.90 1006.62 1007.31
1013.10 1012.53 1012.47 1012.01 1011.49 1011.10 1010.78 1010.12 1009.52 1008.41 1007.35 1006.76 1006.28 1006.21 1006.02 1006.01 1006.12 1006.19 1006.44 1006.74 1006.99 1007.42 1007.16 1007.00 1006.69 1006.54 1006.58 1006.75 1007.51 1007.60 1007.47 1007.61 1007.82 1008.07 1007.50 1008.02 1007.38 1005.13 1004.18 1004.32 1004.25 1004.43 1004.99 1005.73 1006.47
1012.34 1011.91 1012.08 1011.65 1011.28 1011.05 1010.20 1009.58 1008.75 1007.96 1007.22 1006.77 1006.29 1006.13 1005.89 1005.81 1005.74 1005.94 1006.15 1006.26 1006.88 1006.92 1006.67 1006.13 1005.57 1005.44 1005.53 1005.62 1005.81 1006.59 1006.56 1006.47 1006.53 1007.04 1007.04 1007.58 1006.03 1004.08 1003.76 1003.69 1003.73 1003.89 1004.37 1005.13 1005.85
1011.84 1011.58 1011.53 1011.02 1010.90 1010.95 1009.73 1009.05 1008.54 1008.18 1007.70 1006.97 1006.26 1005.95 1005.83 1005.56 1005.50 1005.75 1005.73 1005.49 1005.49 1005.87 1006.04 1005.61 1005.10 1004.91 1005.02 1005.08 1005.39 1006.35 1006.55 1006.15 1006.19 1007.36 1006.97 1005.94 1005.03 1003.70 1003.06 1003.25 1003.41 1003.54 1004.10 1004.70 1005.18
1011.88 1011.08 1010.99 1010.85 1010.72 1010.15 1009.50 1009.26 1009.05 1008.67 1007.98 1007.38 1006.72 1006.39 1005.78 1005.55 1005.54 1005.49 1005.30 1004.62 1004.75 1004.79 1004.71 1005.08 1005.02 1004.43 1004.59 1005.04 1005.62 1005.34 1005.73 1006.02 1006.02 1005.72 1005.48 1005.06 1004.41 1003.26 1002.48 1002.50 1002.99 1003.48 1003.75 1004.30 1004.99
1011.52 1010.74 1010.73 1010.63 1010.50 1009.73 1009.69 1009.78 1009.37 1008.75 1008.47 1007.75 1007.25 1006.85 1006.37 1005.93 1005.67 1005.31 1004.75 1004.38 1004.26 1004.39 1004.77 1004.69 1004.98 1004.42 1004.47 1004.24 1004.11 1005.34 1005.32 1005.51 1005.26 1005.13 1004.57 1004.10 1003.08 1002.54 1002.28 1002.50 1002.88 1003.11 1003.72 1004.09 1004.56
1011.78 1010.86 1010.59 1010.29 1010.39 1011.09 1010.53 1010.45 1009.92 1009.07 1008.64 1008.14 1007.85 1007.53 1007.10 1006.59 1005.99 1005.49 1004.83 1004.44 1004.17 1004.38 1004.71 1004.67 1004.33 1003.79 1003.59 1003.82 1003.91 1004.12 1004.07 1004.35 1004.18 1004.54 1004.60 1003.89 1002.33 1002.05 1002.35 1002.48 1002.76 1003.05 1003.58 1004.11 1004.40
1012.93 1012.18 1010.96 1010.55 1010.96 1011.37 1011.26 1010.76 1010.34 1009.70 1009.33 1008.88 1008.48 1008.30 1007.86 1007.33 1006.96 1006.01 1005.29 1005.05 1004.89 1004.46 1004.28 1004.66 1004.29 1003.69 1003.00 1003.85 1004.10 1003.55 1003.38 1003.37 1003.63 1003.87 1003.26 1002.69 1001.38 1001.70 1002.12 1002.42 1002.61 1002.86 1003.45 1004.35 1004.75
1013.64 1012.95 1012.22 1012.14 1012.89 1012.34 1012.06 1011.63 1010.91 1010.50 1010.12 1009.96 1009.44 1008.96 1008.59 1008.03 1007.88 1007.10 1006.34 1005.75 1005.51 1005.19 1004.90 1004.46 1003.89 1003.27 1002.55 1002.36 1002.78 1002.92 1002.88 1002.69 1002.57 1002.43 1001.82 1001.55 1000.81 1000.88 1001.07 1001.76 1002.22 1002.80 1003.47 1004.19 1004.76
1014.82 1015.40 1015.46 1014.17 1013.72 1013.49 1013.18 1012.75 1012.00 1011.39 1011.05 1010.64 1010.17 1010.18 1009.97 1009.28 1008.63 1008.13 1007.52 1006.65 1005.98 1005.86 1005.45 1005.00 1003.98 1003.58 1002.86 1002.65 1002.49 1001.87 1001.88 1002.22 1001.97 1001.29 1001.10 1000.38 1000.72 1000.17 1000.30 1001.14 1001.70 1002.32 1003.25 1003.82 1004.53
1016.41 1016.50 1016.13 1015.47 1015.00 1014.29 1013.98 1013.61 1013.11 1012.80 1012.37 1011.39 1011.17 1011.04 1010.74 1010.35 1010.28 1009.71 1009.17 1008.16 1007.12 1006.39 1005.89 1005.64 1004.49 1004.09 1002.99 1002.33 1002.13 1001.62 1001.24 1001.63 1001.62 1001.11 1000.82 1000.56 1000.12 999.77 1000.26 1001.17 1001.64 1002.07 1002.74 1003.37 1003.99
1017.89 1017.74 1017.01 1016.33 1015.50 1014.98 1014.67 1014.49 1014.09 1013.92 1012.84 1012.53 1012.51 1012.06 1011.30 1011.18 1011.28 1010.60 1010.06 1009.18 1008.41 1008.13 1007.06 1006.26 1005.34 1004.67 1003.23 1002.82 1002.04 1000.95 1000.55 1000.37 1000.77 1000.64 1000.06 999.74 999.45 999.75 1000.09 1000.49 1001.10 1001.74 1002.54 1002.66 1003.22
Thickness
5738 5741 5744 5746 5749 5752 5755 5758 5762 5764 5767 5769 5771 5772 5773 5775 5777 5780 5786 5806 5808 5805 5800 5796 5794 5792 5792 5782 5780 5776 5757 5743 5741 5741 5752 5765 5767 5775 5783 5773 5773 5772 5768 5770 5764
5740 5744 5746 5749 5752 5755 5759 5761 5764 5766 5769 5771 5773 5774 5775 5776 5781 5786 5811 5811 5810 5805 5798 5792 5787 5787 5778 5776 5775 5768 5757 5757 5767 5765 5759 5765 5769 5772 5769 5767 5765 5763 5767 5767 5761
5742 5745 5749 5752 5755 5758 5761 5764 5767 5770 5772 5773 5774 5776 5777 5778 5785 5802 5814 5812 5809 5807 5805 5800 5795 5785 5773 5774 5771 5769 5759 5770 5771 5771 5770 5764 5766 5774 5768 5760 5770 5764 5761 5762 5758
5743 5746 5750 5754 5758 5761 5764 5768 5770 5773 5775 5776 5777 5778 5779 5780 5776 5809 5814 5812 5809 5807 5801 5795 5787 5776 5771 5767 5773 5763 5773 5775 5771 5772 5768 5763 5769 5767 5766 5763 5778 5775 5767 5763 5757
5744 5748 5752 5756 5761 5764 5768 5771 5774 5776 5777 5779 5779 5779 5780 5786 5796 5813 5812 5810 5806 5803 5797 5791 5783 5779 5769 5773 5770 5763 5770 5772 5773 5772 5768 5768 5764 5766 5763 5770 5775 5772 5764 5761 5760
5746 5750 5754 5758 5763 5767 5771 5774 5776 5778 5780 5780 5780 5780 5784 5783 5814 5814 5812 5807 5805 5800 5796 5794 5790 5789 5778 5772 5768 5769 5769 5767 5769 5767 5765 5760 5761 5766 5764 5773 5768 5766 5764 5762 5760
5746 5751 5756 5760 5764 5767 5772 5775 5779 5781 5781 5781 5781 5782 5785 5795 5812 5810 5809 5805 5806 5802 5793 5796 5797 5786 5782 5769 5774 5767 5756 5761 5763 5764 5761 5765 5750 5753 5762 5766 5760 5765 5763 5763 5761
5747 5752 5756 5760 5765 5768 5773 5776 5780 5782 5781 5780 5779 5782 5788 5812 5810 5807 5805 5799 5801 5801 5798 5798 5798 5786 5779 5778 5768 5757 5755 5745 5761 5763 5763 5762 5747 5762 5764 5764 5760 5763 5762 5761 5762
5747 5752 5756 5761 5765 5768 5773 5777 5780 5779 5778 5777 5779 5782 5787 5809 5802 5808 5806 5796 5794 5794 5796 5799 5793 5777 5774 5764 5751 5748 5740 5742 5751 5761 5759 5756 5752 5764 5762 5761 5756 5763 5762 5762 5762
5746 5751 5755 5761 5765 5768 5773 5775 5776 5775 5774 5775 5777 5774 5793 5796 5806 5804 5803 5798 5789 5786 5782 5782 5775 5767 5761 5760 5738 5735 5740 5746 5745 5753 5755 5752 5754 5757 5760 5758 5757 5759 5763 5763 5763
5746 5750 5754 5759 5763 5767 5770 5773 5774 5773 5773 5788 5789 5790 5794 5804 5808 5797 5800 5793 5788 5779 5764 5768 5762 5756 5764 5762 5756 5749 5744 5746 5757 5758 5751 5751 5754 5761 5759 5755 5756 5757 5760 5764 5766
5746 5750 5754 5758 5763 5767 5768 5777 5785 5784 5777 5788 5785 5786 5794 5799 5786 5789 5798 5779 5773 5762 5764 5757 5755 5768 5762 5755 5751 5749 5744 5749 5757 5756 5752 5751 5754 5766 5764 5762 5762 5762 5764 5767 5769
5743 5748 5754 5757 5761 5763 5772 5779 5783 5784 5770 5780 5784 5786 5789 5791 5782 5784 5790 5778 5767 5755 5757 5755 5761 5768 5760 5752 5746 5751 5746 5749 5750 5749 5752 5748 5753 5765 5777 5772 5768 5769 5771 5772 5773
5742 5747 5752 5756 5759 5765 5772 5777 5777 5777 5758 5771 5776 5787 5788 5790 5775 5796 5795 5783 5764 5756 5751 5755 5770 5759 5752 5753 5754 5747 5761 5755 5748 5745 5735 5749 5734 5757 5770 5771 5771 5772 5772 5774 5775
5741 5746 5748 5750 5754 5763 5770 5770 5772 5769 5736 5773 5774 5795 5786 5783 5784 5778 5791 5779 5759 5755 5755 5756 5757 5756 5751 5757 5761 5754 5759 5752 5750 5743 5739 5742 5731 5766 5760 5769 5779 5783 5782 5782 5783
5744 5748 5750 5750 5748 5763 5764 5767 5767 5747 5731 5765 5774 5770 5770 5776 5776 5776 5774 5781 5772 5755 5753 5760 5767 5764 5770 5767 5765 5758 5751 5744 5740 5736 5725 5747 5742 5763 5769 5784 5794 5795 5793 5789 5786
5748 5753 5753 5755 5763 5760 5762 5764 5743 5731 5761 5755 5761 5766 5767 5763 5764 5767 5761 5755 5749 5733 5738 5753 5759 5770 5770 5757 5754 5753 5748 5726 5723 5721 5729 5735 5734 5767 5791 5793 5797 5799 5797 5797 5794
5752 5755 5752 5753 5755 5756 5761 5753 5722 5741 5746 5762 5761 5759 5754 5761 5763 5760 5753 5748 5752 5747 5738 5737 5741 5761 5775 5766 5760 5751 5756 5738 5711 5716 5733 5728 5733 5768 5794 5799 5803 5806 5804 5801 5796
5753 5754 5753 5755 5754 5753 5755 5732 5733 5735 5747 5749 5757 5749 5748 5760 5761 5755 5752 5755 5763 5759 5737 5736 5741 5768 5769 5772 5772 5747 5740 5767 5739 5718 5719 5744 5759 5785 5798 5791 5797 5802 5800 5798 5799
5750 5755 5752 5751 5751 5754 5745 5720 5729 5738 5746 5748 5738 5745 5740 5749 5751 5752 5750 5769 5764 5769 5777 5757 5735 5767 5767 5770 5762 5764 5766 5744 5738 5716 5712 5735 5739 5758 5788 5795 5796 5795 5799 5800 5799
5750 5753 5749 5748 5749 5748 5728 5722 5725 5740 5740 5738 5736 5736 5741 5742 5745 5746 5756 5769 5771 5767 5769 5766 5750 5756 5764 5759 5764 5750 5749 5745 5751 5743 5732 5726 5748 5787 5790 5793 5791 5797 5798 5800 5798
5742 5741 5745 5747 5735 5714 5721 5717 5720 5732 5738 5736 5737 5734 5732 5737 5740 5741 5749 5760 5776 5769 5751 5763 5758 5745 5758 5770 5775 5767 5765 5760 5746 5731 5732 5736 5754 5793 5792 5795 5796 5796 5797 5798 5800
5726 5724 5738 5739 5720 5713 5712 5715 5718 5719 5722 5724 5723 5726 5731 5728 5722 5737 5748 5759 5763 5765 5758 5756 5747 5737 5752 5755 5756 5759 5766 5769 5762 5751 5741 5742 5761 5793 5790 5790 5796 5797 5796 5792 5793
5719 5721 5721 5717 5701 5704 5700 5701 5705 5713 5711 5710 5712 5719 5715 5717 5717 5719 5729 5743 5749 5754 5752 5757 5749 5748 5746 5762 5759 5749 5755 5763 5768 5750 5760 5758 5775 5789 5797 5792 5796 5794 5796 5793 5789
5701 5689 5682 5695 5695 5690 5688 5688 5690 5691 5699 5702 5700 5696 5693 5695 5703 5705 5714 5724 5737 5736 5739 5742 5734 5742 5754 5758 5755 5767 5765 5756 5755 5772 5755 5777 5764 5790 5800 5797 5800 5801 5796 5793 5789
5686 5680 5676 5676 5673 5680 5674 5675 5676 5675 5676 5683 5681 5682 5685 5683 5682 5682 5688 5699 5707 5720 5724 5725 5721 5724 5732 5756 5749 5744 5761 5756 5753 5765 5766 5768 5769 5805 5803 5794 5794 5797 5796 5793 5792
5661 5660 5664 5659 5666 5669 5666 5661 5663 5661 5671 5670 5661 5662 5669 5670 5667 5675 5680 5687 5692 5685 5697 5704 5709 5707 5710 5735 5737 5723 5755 5764 5762 5769 5777 5762 5788 5798 5794 5794 5794 5796 5795 5796 5798